View from above orbital plane
|
View from above satellite
|
Ground track
|
The orbit data is extracted from the following two-line orbital elements,
1 21422U 91042A 13138.49126053 .00001178 00000-0 12201-3 0 5805
2 21422 082.5036 222.6348 0014607 218.4083 141.6096 14.89140732186403
| Epoch (UTC): | 18 May 2013 11:47:24 |
| Eccentricity: | 0.0014607 |
| inclination: | 82.5036° |
| perigee height: | 590 km |
| apogee height: | 611 km |
| right ascension of ascending node: | 222.6348° |
| argument of perigee: | 218.4083° |
| revolutions per day: | 14.89140732 |
| mean anomaly at epoch: | 141.6096° |
| orbit number at epoch: | 18640 |
The dashed part of the orbit path shows where the satellite is in the earth's shadow,
|
|